TimeCST,TemperatureF,Dew PointF,Humidity,Sea Level PressureIn,VisibilityMPH,Wind Direction,Wind SpeedMPH,Gust SpeedMPH,PrecipitationIn,Events,Conditions,WindDirDegrees,DateUTC
12:53 AM,60.1,45.0,57,29.79,10.0,North,-9999.0,-,N/A,,Scattered Clouds,0,2013-01-12 06:53:00
1:53 AM,59.0,45.0,60,29.83,10.0,SW,12.7,-,N/A,,Overcast,230,2013-01-12 07:53:00
2:53 AM,57.9,42.1,56,29.85,10.0,West,9.2,-,N/A,,Overcast,260,2013-01-12 08:53:00
3:53 AM,53.1,27.0,37,29.87,10.0,NW,8.1,-,N/A,,Overcast,320,2013-01-12 09:53:00
4:53 AM,48.9,28.9,46,29.89,10.0,NNW,8.1,-,0.00,Rain,Light Rain,330,2013-01-12 10:53:00
5:53 AM,44.1,33.1,65,29.91,10.0,NNW,10.4,-,0.00,,Clear,330,2013-01-12 11:53:00
6:53 AM,42.1,34.0,73,29.95,10.0,NNE,9.2,-,N/A,,Mostly Cloudy,20,2013-01-12 12:53:00
7:53 AM,39.0,30.0,70,30.00,10.0,North,15.0,21.9,N/A,,Overcast,360,2013-01-12 13:53:00
8:53 AM,37.9,27.0,65,30.00,10.0,North,13.8,-,0.00,Rain,Light Rain,10,2013-01-12 14:53:00
9:53 AM,37.0,26.1,65,30.01,10.0,North,13.8,25.3,0.00,,Overcast,10,2013-01-12 15:53:00
10:53 AM,36.0,25.0,64,29.99,10.0,North,17.3,-,0.00,,Overcast,360,2013-01-12 16:53:00
11:53 AM,35.1,19.9,54,30.01,10.0,NNE,12.7,18.4,N/A,,Overcast,20,2013-01-12 17:53:00
12:53 PM,34.0,19.0,54,29.95,10.0,NNE,11.5,21.9,N/A,,Overcast,30,2013-01-12 18:53:00
1:53 PM,34.0,21.9,61,29.91,10.0,NNE,13.8,20.7,0.00,,Overcast,20,2013-01-12 19:53:00
2:53 PM,32.0,24.1,73,29.96,7.0,NNW,16.1,-,0.01,Rain,Rain,340,2013-01-12 20:53:00
3:07 PM,30.2,26.6,86,29.94,2.5,NNW,16.1,-,0.05,Rain,Light Freezing Rain,340,2013-01-12 21:07:00
3:10 PM,30.2,26.6,86,29.95,3.0,NNW,16.1,-,0.06,Rain,Light Freezing Rain,330,2013-01-12 21:10:00
3:53 PM,30.0,27.0,88,29.93,3.0,NNE,16.1,25.3,0.17,Rain,Light Freezing Rain,20,2013-01-12 21:53:00
4:11 PM,30.2,26.6,86,29.91,6.0,North,20.7,27.6,0.02,Rain,Light Freezing Rain,360,2013-01-12 22:11:00
4:32 PM,30.2,26.6,86,29.94,6.0,North,16.1,23.0,0.03,,Light Freezing Drizzle,360,2013-01-12 22:32:00
4:53 PM,30.0,27.0,88,29.93,3.0,North,17.3,24.2,0.06,Rain,Light Freezing Rain,10,2013-01-12 22:53:00
5:53 PM,28.9,26.1,89,29.99,10.0,North,12.7,26.5,0.08,Rain,Light Freezing Rain,350,2013-01-12 23:53:00
6:06 PM,28.4,26.6,93,29.94,10.0,NE,11.5,-,0.00,,Overcast,40,2013-01-13 00:06:00
6:10 PM,28.4,26.6,93,29.94,8.0,NNE,12.7,-,0.00,Rain,Light Freezing Rain,20,2013-01-13 00:10:00
6:53 PM,30.0,28.9,96,29.99,2.0,North,12.7,-,0.14,Rain,Light Freezing Rain,360,2013-01-13 00:53:00
7:20 PM,28.4,26.6,93,29.96,4.0,North,11.5,43.7,0.06,Rain,Light Freezing Rain,10,2013-01-13 01:20:00
7:30 PM,28.4,26.6,93,29.97,5.0,North,-9999.0,-,0.07,Rain,Light Freezing Rain,0,2013-01-13 01:30:00
7:44 PM,28.4,24.8,86,29.98,8.0,North,16.1,26.5,0.07,Rain,Light Freezing Rain,10,2013-01-13 01:44:00
7:51 PM,28.4,24.8,86,29.99,10.0,North,17.3,23.0,0.07,Rain,Light Freezing Rain,10,2013-01-13 01:51:00
7:53 PM,28.0,25.0,88,30.00,10.0,North,15.0,21.9,0.07,Rain,Light Freezing Rain,10,2013-01-13 01:53:00
8:02 PM,28.4,24.8,86,29.97,6.0,North,13.8,25.3,0.01,Rain,Light Freezing Rain,360,2013-01-13 02:02:00
8:04 PM,28.4,24.8,86,29.97,4.0,North,15.0,23.0,0.01,Rain,Light Freezing Rain,350,2013-01-13 02:04:00
8:11 PM,26.6,24.8,93,29.98,3.0,North,16.1,23.0,0.01,,Overcast,360,2013-01-13 02:11:00
8:16 PM,26.6,24.8,93,29.97,5.0,North,16.1,25.3,0.02,Rain,Light Freezing Rain,360,2013-01-13 02:16:00
8:27 PM,26.6,24.8,93,30.00,8.0,North,10.4,21.9,0.02,Rain,Light Freezing Rain,360,2013-01-13 02:27:00
8:37 PM,26.6,24.8,93,30.00,9.0,North,12.7,-,0.02,Rain,Light Freezing Rain,360,2013-01-13 02:37:00
8:46 PM,26.6,24.8,93,30.00,7.0,North,16.1,-,0.02,,Overcast,360,2013-01-13 02:46:00
8:53 PM,26.1,24.1,92,30.02,8.0,North,13.8,-,0.02,Rain,Light Freezing Rain,360,2013-01-13 02:53:00
9:07 PM,26.6,23.0,86,29.99,10.0,North,12.7,21.9,0.00,Rain,Light Freezing Rain,360,2013-01-13 03:07:00
9:24 PM,26.6,23.0,86,29.99,10.0,North,12.7,23.0,0.00,,Overcast,10,2013-01-13 03:24:00
9:31 PM,26.6,21.2,80,29.99,10.0,NNE,10.4,-,0.00,,Overcast,20,2013-01-13 03:31:00
9:53 PM,25.0,21.9,88,30.02,10.0,North,10.4,20.7,0.00,,Overcast,10,2013-01-13 03:53:00
10:09 PM,24.8,21.2,86,30.02,10.0,North,12.7,18.4,N/A,,Overcast,360,2013-01-13 04:09:00
10:53 PM,25.0,21.9,88,30.04,10.0,NNW,6.9,-,N/A,,Overcast,340,2013-01-13 04:53:00
11:53 PM,24.1,18.0,77,30.04,10.0,North,9.2,-,N/A,,Overcast,360,2013-01-13 05:53:00